Home   Weather   Mo i Rana   Past weeks

Flag for Norway Past Weather in Mo i Rana, Norway — Yesterday and Last 2 Weeks

40 °F

Quite cool.

Feels Like: 33 °F
Forecast: 27 / 38 °F
Wind: 14 mph from Southeast

Location: Nord-Solvaer

Current Time: Oct 23, 2016 at 9:56:43 AM

Latest Report: Oct 23, 2016 at 9:00 AM

Visibility: N/A

Pressure: 30.52 "Hg

Humidity: 63%

Dew Point: 28 °F

Location of Mo i RanaLocation

Past Weather in Mo i Rana — Graph


Mo i Rana Temperature Yesterday

Maximum temperature yesterday: 43 °F (at 12:00 PM)
Minimum temperature yesterday: 41 °F (at 8:00 PM)
Average temperature yesterday: 42 °F

High & Low Weather Summary for the Past Weeks

High52 °F (Oct 8, 3:00 PM)93% (Oct 14, 12:00 AM)30.70 "Hg (Oct 14, 12:00 AM)
Low41 °F (Oct 22, 8:00 PM)45% (Oct 16, 2:00 PM)30.05 "Hg (Oct 18, 9:00 AM)
Average46 °F69%30.44 "Hg
* Reported Oct 8 8:00 AM — Oct 23 8:00 AM, Mo i Rana, Weather by CustomWeather, © 2016

Note: Actual official high and low records may vary slightly from our data, if they occured in-between our weather recording intervals... More about our weather records


Mo i Rana Weather History for the Previous 24 Hours

Scroll right to see more
Time TempWeatherWind HumidityBarometerVisibility
8:00 AM
Sun, Oct 23
41 °FQuite cool.13 mph58%30.51 "HgN/A
7:00 AM41 °FQuite cool.7 mph57%30.52 "HgN/A
6:00 AM42 °FQuite cool.8 mph60%30.52 "HgN/A
5:00 AM42 °FQuite cool.9 mph60%30.53 "HgN/A
3:00 AM42 °FQuite cool.9 mph59%30.55 "HgN/A
2:00 AM42 °FQuite cool.12 mph56%30.55 "HgN/A
1:00 AM42 °FQuite cool.9 mph58%30.56 "HgN/A
12:00 AM41 °FQuite cool.8 mph60%30.57 "HgN/A
11:00 PM
Sat, Oct 22
41 °FQuite cool.9 mph60%30.58 "HgN/A
10:00 PM41 °FQuite cool.9 mph60%30.57 "HgN/A
9:00 PM41 °FQuite cool.12 mph64%30.55 "HgN/A
8:00 PM41 °FQuite cool.12 mph63%30.53 "HgN/A
7:00 PM41 °FQuite cool.10 mph60%30.53 "HgN/A
6:00 PM42 °FQuite cool.10 mph58%30.52 "HgN/A
5:00 PM42 °FQuite cool.10 mph56%30.52 "HgN/A
4:00 PM42 °FQuite cool.12 mph53%30.51 "HgN/A
3:00 PM43 °FQuite cool.10 mph50%30.52 "HgN/A
2:00 PM43 °FQuite cool.8 mph52%30.52 "HgN/A
1:00 PM43 °FQuite cool.7 mph52%30.52 "HgN/A
12:00 PM43 °FQuite cool.6 mph54%30.51 "HgN/A
11:00 AM43 °FQuite cool.6 mph54%30.51 "HgN/A
10:00 AM42 °FQuite cool.5 mph56%30.50 "HgN/A
9:00 AM42 °FQuite cool.7 mph60%30.50 "HgN/A
Weather by CustomWeather, © 2016

See weather overviewHow to use our weather pages